Time,TemperatureF,DewpointF,PressureIn,WindDirection,WindDirectionDegrees,WindSpeedMPH,WindSpeedGustMPH,Humidity,HourlyPrecipIn,Conditions,Clouds,dailyrainin,SoftwareType,DateUTC
2013-04-25 00:14:00,42.4,32.2,29.90,SSE,157,2.2,-999.0,67,-99.99,,,0.00,Acu-Link.com,2013-04-25 04:14:00,
2013-04-25 00:30:00,41.5,33.2,29.91,WNW,292,0.0,-999.0,72,-99.99,,,0.00,Acu-Link.com,2013-04-25 04:30:00,
2013-04-25 00:45:00,41.0,31.6,29.92,West,270,6.8,-999.0,69,-99.99,,,0.00,Acu-Link.com,2013-04-25 04:45:00,
2013-04-25 01:00:00,41.2,31.1,29.94,East,90,5.3,-999.0,67,-99.99,,,0.00,Acu-Link.com,2013-04-25 05:00:00,
2013-04-25 01:15:00,41.2,30.7,29.94,East,90,3.2,-999.0,66,-99.99,,,0.00,Acu-Link.com,2013-04-25 05:15:00,
2013-04-25 01:30:00,41.2,30.7,29.94,ESE,112,0.0,-999.0,66,-99.99,,,0.00,Acu-Link.com,2013-04-25 05:30:00,
2013-04-25 01:45:00,40.8,30.3,29.94,ENE,67,4.7,-999.0,66,-99.99,,,0.00,Acu-Link.com,2013-04-25 05:45:00,
2013-04-25 02:00:00,40.6,30.1,29.94,ENE,67,5.3,-999.0,66,-99.99,,,0.00,Acu-Link.com,2013-04-25 06:00:00,
2013-04-25 02:15:00,40.6,30.5,29.94,ENE,67,3.2,-999.0,67,-99.99,,,0.00,Acu-Link.com,2013-04-25 06:15:00,
2013-04-25 02:30:00,40.6,30.5,29.95,ENE,67,4.2,-999.0,67,-99.99,,,0.00,Acu-Link.com,2013-04-25 06:30:00,
2013-04-25 02:46:00,40.5,30.4,29.96,NE,45,2.7,-999.0,67,-99.99,,,0.00,Acu-Link.com,2013-04-25 06:46:00,
2013-04-25 03:01:00,40.5,30.4,29.95,NE,45,1.7,-999.0,67,-99.99,,,0.00,Acu-Link.com,2013-04-25 07:01:00,
2013-04-25 03:16:00,40.5,30.4,29.96,West,270,4.7,-999.0,67,-99.99,,,0.00,Acu-Link.com,2013-04-25 07:16:00,
2013-04-25 03:31:00,40.8,30.7,29.97,ENE,67,9.9,-999.0,67,-99.99,,,0.00,Acu-Link.com,2013-04-25 07:31:00,
2013-04-25 03:46:00,40.6,30.9,29.98,WSW,247,6.3,-999.0,68,-99.99,,,0.00,Acu-Link.com,2013-04-25 07:46:00,
2013-04-25 04:01:00,40.6,30.5,29.99,SE,135,4.7,-999.0,67,-99.99,,,0.00,Acu-Link.com,2013-04-25 08:01:00,
2013-04-25 04:16:00,40.6,30.9,29.99,West,270,3.7,-999.0,68,-99.99,,,0.00,Acu-Link.com,2013-04-25 08:16:00,
2013-04-25 04:32:00,40.6,30.5,30.00,West,270,3.7,-999.0,67,-99.99,,,0.00,Acu-Link.com,2013-04-25 08:32:00,
2013-04-25 04:47:00,40.3,30.2,30.01,WNW,292,0.0,-999.0,67,-99.99,,,0.00,Acu-Link.com,2013-04-25 08:47:00,
2013-04-25 05:02:00,40.1,29.7,30.02,NNE,22,1.7,-999.0,66,-99.99,,,0.00,Acu-Link.com,2013-04-25 09:02:00,
2013-04-25 05:17:00,39.6,28.8,30.02,WNW,292,2.2,-999.0,65,-99.99,,,0.00,Acu-Link.com,2013-04-25 09:17:00,
2013-04-25 05:32:00,39.0,28.6,30.03,South,180,4.7,-999.0,66,-99.99,,,0.00,Acu-Link.com,2013-04-25 09:32:00,
2013-04-25 05:47:00,39.2,28.1,30.04,East,90,4.7,-999.0,64,-99.99,,,0.00,Acu-Link.com,2013-04-25 09:47:00,
2013-04-25 06:02:00,39.0,28.6,30.04,WNW,292,4.2,-999.0,66,-99.99,,,0.00,Acu-Link.com,2013-04-25 10:02:00,
2013-04-25 06:17:00,38.7,28.3,30.05,WSW,247,3.2,-999.0,66,-99.99,,,0.00,Acu-Link.com,2013-04-25 10:17:00,
2013-04-25 06:33:00,38.7,29.8,30.05,SE,135,0.0,-999.0,70,-99.99,,,0.00,Acu-Link.com,2013-04-25 10:33:00,
2013-04-25 06:48:00,37.9,29.4,30.06,NNE,22,0.0,-999.0,71,-99.99,,,0.00,Acu-Link.com,2013-04-25 10:48:00,
2013-04-25 07:03:00,37.6,28.4,30.07,West,270,1.1,-999.0,69,-99.99,,,0.00,Acu-Link.com,2013-04-25 11:03:00,
2013-04-25 07:18:00,37.0,28.5,30.08,SSE,157,1.7,-999.0,71,-99.99,,,0.00,Acu-Link.com,2013-04-25 11:18:00,
2013-04-25 07:33:00,37.9,29.4,30.08,ESE,112,0.0,-999.0,71,-99.99,,,0.00,Acu-Link.com,2013-04-25 11:33:00,
2013-04-25 07:48:00,40.5,30.4,30.08,ESE,112,1.7,-999.0,67,-99.99,,,0.00,Acu-Link.com,2013-04-25 11:48:00,
2013-04-25 08:03:00,41.2,29.6,30.08,SSE,157,3.7,-999.0,63,-99.99,,,0.00,Acu-Link.com,2013-04-25 12:03:00,
2013-04-25 08:18:00,43.0,30.9,30.07,NNE,22,3.2,-999.0,62,-99.99,,,0.00,Acu-Link.com,2013-04-25 12:18:00,
2013-04-25 08:33:00,43.3,30.4,30.05,WSW,247,3.2,-999.0,60,-99.99,,,0.00,Acu-Link.com,2013-04-25 12:33:00,
2013-04-25 08:49:00,43.9,30.5,30.05,WNW,292,3.7,-999.0,59,-99.99,,,0.00,Acu-Link.com,2013-04-25 12:49:00,
2013-04-25 09:04:00,44.8,29.6,30.07,West,270,3.7,-999.0,55,-99.99,,,0.00,Acu-Link.com,2013-04-25 13:04:00,
2013-04-25 09:19:00,45.5,30.7,30.08,East,90,2.7,-999.0,56,-99.99,,,0.00,Acu-Link.com,2013-04-25 13:19:00,
2013-04-25 09:34:00,46.8,31.0,30.08,South,180,1.7,-999.0,54,-99.99,,,0.00,Acu-Link.com,2013-04-25 13:34:00,
2013-04-25 09:49:00,47.8,31.0,30.08,West,270,3.7,-999.0,52,-99.99,,,0.00,Acu-Link.com,2013-04-25 13:49:00,
2013-04-25 10:04:00,48.0,30.7,30.08,West,270,4.2,-999.0,51,-99.99,,,0.00,Acu-Link.com,2013-04-25 14:04:00,
2013-04-25 10:19:00,49.5,31.1,30.08,ENE,67,6.3,-999.0,49,-99.99,,,0.00,Acu-Link.com,2013-04-25 14:19:00,
2013-04-25 10:34:00,49.8,29.9,30.08,NNE,22,3.7,-999.0,46,-99.99,,,0.00,Acu-Link.com,2013-04-25 14:34:00,
2013-04-25 10:49:00,50.2,29.7,30.07,WSW,247,4.7,-999.0,45,-99.99,,,0.00,Acu-Link.com,2013-04-25 14:49:00,
2013-04-25 11:05:00,50.5,28.8,30.07,SSE,157,2.7,-999.0,43,-99.99,,,0.00,Acu-Link.com,2013-04-25 15:05:00,
2013-04-25 11:20:00,53.2,30.7,30.06,South,180,1.1,-999.0,42,-99.99,,,0.00,Acu-Link.com,2013-04-25 15:20:00,
2013-04-25 11:35:00,54.1,33.2,30.06,South,180,2.2,-999.0,45,-99.99,,,0.00,Acu-Link.com,2013-04-25 15:35:00,
2013-04-25 11:50:00,52.7,31.4,30.06,SSE,157,5.3,-999.0,44,-99.99,,,0.00,Acu-Link.com,2013-04-25 15:50:00,
2013-04-25 12:05:00,54.1,30.3,30.05,NE,45,0.0,-999.0,40,-99.99,,,0.00,Acu-Link.com,2013-04-25 16:05:00,
2013-04-25 12:20:00,54.9,33.4,30.05,South,180,2.2,-999.0,44,-99.99,,,0.00,Acu-Link.com,2013-04-25 16:20:00,
2013-04-25 12:36:00,54.3,29.9,30.05,NE,45,4.2,-999.0,39,-99.99,,,0.00,Acu-Link.com,2013-04-25 16:36:00,
2013-04-25 12:51:00,56.1,30.2,30.04,SE,135,3.7,-999.0,37,-99.99,,,0.00,Acu-Link.com,2013-04-25 16:51:00,
2013-04-25 13:06:00,55.6,30.4,30.04,South,180,2.7,-999.0,38,-99.99,,,0.00,Acu-Link.com,2013-04-25 17:06:00,
2013-04-25 13:21:00,56.8,28.7,30.03,SSE,157,5.8,-999.0,34,-99.99,,,0.00,Acu-Link.com,2013-04-25 17:21:00,
2013-04-25 13:36:00,57.6,30.2,30.03,SSE,157,3.7,-999.0,35,-99.99,,,0.00,Acu-Link.com,2013-04-25 17:36:00,
2013-04-25 13:51:00,57.6,32.8,30.02,South,180,6.3,-999.0,39,-99.99,,,0.00,Acu-Link.com,2013-04-25 17:51:00,
2013-04-25 14:06:00,57.0,32.9,30.02,SE,135,4.2,-999.0,40,-99.99,,,0.00,Acu-Link.com,2013-04-25 18:06:00,
2013-04-25 14:21:00,57.2,31.8,30.02,SSE,157,4.7,-999.0,38,-99.99,,,0.00,Acu-Link.com,2013-04-25 18:21:00,
2013-04-25 14:36:00,57.9,33.7,30.01,SSE,157,3.2,-999.0,40,-99.99,,,0.00,Acu-Link.com,2013-04-25 18:36:00,
2013-04-25 14:52:00,59.0,34.1,30.00,SE,135,4.2,-999.0,39,-99.99,,,0.00,Acu-Link.com,2013-04-25 18:52:00,
2013-04-25 15:07:00,61.3,34.1,29.99,West,270,4.7,-999.0,36,-99.99,,,0.00,Acu-Link.com,2013-04-25 19:07:00,
2013-04-25 15:22:00,59.2,33.6,30.00,ENE,67,6.3,-999.0,38,-99.99,,,0.00,Acu-Link.com,2013-04-25 19:22:00,
2013-04-25 15:37:00,60.3,33.9,29.99,South,180,4.2,-999.0,37,-99.99,,,0.00,Acu-Link.com,2013-04-25 19:37:00,
2013-04-25 15:52:00,59.7,32.7,29.98,East,90,5.3,-999.0,36,-99.99,,,0.00,Acu-Link.com,2013-04-25 19:52:00,
2013-04-25 16:07:00,61.3,35.5,29.98,East,90,3.7,-999.0,38,-99.99,,,0.00,Acu-Link.com,2013-04-25 20:07:00,
2013-04-25 16:22:00,62.1,31.9,29.97,West,270,5.8,-999.0,32,-99.99,,,0.00,Acu-Link.com,2013-04-25 20:22:00,
2013-04-25 16:37:00,60.4,31.2,29.97,SSE,157,5.8,-999.0,33,-99.99,,,0.00,Acu-Link.com,2013-04-25 20:37:00,
2013-04-25 16:52:00,61.2,31.9,29.97,ENE,67,2.7,-999.0,33,-99.99,,,0.00,Acu-Link.com,2013-04-25 20:52:00,
2013-04-25 17:08:00,61.0,31.7,29.97,SE,135,4.7,-999.0,33,-99.99,,,0.00,Acu-Link.com,2013-04-25 21:08:00,
2013-04-25 17:23:00,62.2,31.2,29.97,SSE,157,9.4,-999.0,31,-99.99,,,0.00,Acu-Link.com,2013-04-25 21:23:00,
2013-04-25 17:38:00,62.2,31.2,29.98,SE,135,3.7,-999.0,31,-99.99,,,0.00,Acu-Link.com,2013-04-25 21:38:00,
2013-04-25 17:53:00,65.5,30.6,29.98,SSE,157,6.3,-999.0,27,-99.99,,,0.00,Acu-Link.com,2013-04-25 21:53:00,
2013-04-25 18:08:00,63.9,31.9,29.98,SE,135,3.2,-999.0,30,-99.99,,,0.00,Acu-Link.com,2013-04-25 22:08:00,
2013-04-25 18:23:00,63.1,29.5,29.98,West,270,4.7,-999.0,28,-99.99,,,0.00,Acu-Link.com,2013-04-25 22:23:00,
2013-04-25 18:38:00,63.1,24.7,29.98,West,270,1.1,-999.0,23,-99.99,,,0.00,Acu-Link.com,2013-04-25 22:38:00,
2013-04-25 18:53:00,60.4,23.5,29.98,SE,135,5.3,-999.0,24,-99.99,,,0.00,Acu-Link.com,2013-04-25 22:53:00,
2013-04-25 19:08:00,59.2,25.2,29.99,West,270,4.7,-999.0,27,-99.99,,,0.00,Acu-Link.com,2013-04-25 23:08:00,
2013-04-25 19:24:00,58.3,26.2,30.00,WSW,247,0.0,-999.0,29,-99.99,,,0.00,Acu-Link.com,2013-04-25 23:24:00,
2013-04-25 19:39:00,57.2,21.7,30.00,West,270,4.2,-999.0,25,-99.99,,,0.00,Acu-Link.com,2013-04-25 23:39:00,
2013-04-25 19:54:00,56.7,22.2,30.02,ENE,67,2.2,-999.0,26,-99.99,,,0.00,Acu-Link.com,2013-04-25 23:54:00,
2013-04-25 20:09:00,55.4,24.5,30.02,SSE,157,2.7,-999.0,30,-99.99,,,0.00,Acu-Link.com,2013-04-26 00:09:00,
2013-04-25 20:24:00,53.8,25.4,30.04,East,90,0.0,-999.0,33,-99.99,,,0.00,Acu-Link.com,2013-04-26 00:24:00,
2013-04-25 20:39:00,53.2,26.9,30.04,ENE,67,0.0,-999.0,36,-99.99,,,0.00,Acu-Link.com,2013-04-26 00:39:00,
2013-04-25 20:54:00,52.9,28.6,30.05,ENE,67,0.0,-999.0,39,-99.99,,,0.00,Acu-Link.com,2013-04-26 00:54:00,
2013-04-25 21:09:00,52.5,27.6,30.06,NE,45,2.2,-999.0,38,-99.99,,,0.00,Acu-Link.com,2013-04-26 01:09:00,
2013-04-25 21:24:00,51.6,28.7,30.07,SE,135,2.2,-999.0,41,-99.99,,,0.00,Acu-Link.com,2013-04-26 01:24:00,
2013-04-25 21:40:00,49.8,32.9,30.08,West,270,2.2,-999.0,52,-99.99,,,0.00,Acu-Link.com,2013-04-26 01:40:00,
2013-04-25 21:55:00,48.7,30.4,30.08,NE,45,0.0,-999.0,49,-99.99,,,0.00,Acu-Link.com,2013-04-26 01:55:00,
2013-04-25 22:10:00,47.7,30.5,30.09,NE,45,0.0,-999.0,51,-99.99,,,0.00,Acu-Link.com,2013-04-26 02:10:00,
2013-04-25 22:25:00,46.6,30.9,30.10,NE,45,0.0,-999.0,54,-99.99,,,0.00,Acu-Link.com,2013-04-26 02:25:00,
2013-04-25 22:40:00,46.9,31.1,30.11,West,270,4.7,-999.0,54,-99.99,,,0.00,Acu-Link.com,2013-04-26 02:40:00,
2013-04-25 22:55:00,48.6,30.3,30.11,WNW,292,4.7,-999.0,49,-99.99,,,0.00,Acu-Link.com,2013-04-26 02:55:00,
2013-04-25 23:10:00,50.9,31.4,30.11,NE,45,3.7,-999.0,47,-99.99,,,0.00,Acu-Link.com,2013-04-26 03:10:00,
2013-04-25 23:25:00,51.1,32.1,30.12,ENE,67,8.3,-999.0,48,-99.99,,,0.00,Acu-Link.com,2013-04-26 03:25:00,
2013-04-25 23:40:00,50.9,33.4,30.13,East,90,5.8,-999.0,51,-99.99,,,0.00,Acu-Link.com,2013-04-26 03:40:00,
2013-04-25 23:55:00,49.3,34.7,30.14,NE,45,7.3,-999.0,57,-99.99,,,0.00,Acu-Link.com,2013-04-26 03:55:00,